Location: Karaa?a�
(36.7158°N, 30.4165°E)
Time: 09:31:27
(UTC+00:00)

Cosmos 1461 - Pass Details

Date: 09 April 2020
Orbit: 507 x 659 km, 65.0° (Epoch: 31 May)

Event Time Altitude Azimuth Distance (km) Brightness Sun altitude
Rises 17:22:17 0° 339° (NNW) 2,904 7.1 -11.4°
Reaches altitude 10° 17:24:43 10° 349° (N) 2,017 6.1 -11.8°
Maximum altitude 17:28:53 33° 54° (NE) 1,086 4.0 -12.6°
Enters shadow 17:31:25 20° 105° (ESE) 1,516 4.4 -13.1°
